カタログに戻る

TIANGONG

MENGTIAN

運用中科学VLEO
NORAD 54216·PAYLOAD·🇨🇳 China

打ち上げ Oct 31, 2022 から Wenchang Space Launch Site

Loading…

次のパス (今後24時間)

TLE

最新Source: Space-Track

元期: Sep 14, 2026, 14:01 UTC

1 54216U 22143A   26257.58463244  .00018605  00000-0  22780-3 0  9990
2 54216  41.4676 139.2408 0002663 278.8217  81.2320 15.59928303307738

AllMySatでTIANGONGをリアルタイム追跡

Download on the App Store